Location: Acts Church of Fort Worth
(32.6786°N, 97.2668°W)
Time: 23:24:22
(UTC+00:00)

Cosmos 292 Rocket - Pass Details

Date: 18 January 2026
Orbit: 663 x 681 km, 74.0° (Epoch: 13 February)

Event Time Altitude Azimuth Distance (km) Brightness Sun altitude
Rises 00:33:30 0° 349° (N) 3,002 7.0 -9.8°
Reaches altitude 10° 00:35:51 10° 354° (N) 2,086 6.1 -10.2°
Maximum altitude 00:40:25 52° 71° (ENE) 825 3.8 -11.2°
Drops below altitude 10° 00:44:59 10° 148° (SSE) 2,080 6.1 -12.1°
Sets 00:47:18 0° 153° (SSE) 2,992 7.0 -12.5°
